sat.trackr.live / text

‹ back to catalog

SUPERBIRD-B3

NORAD 43271 · 2018-033A

PAYLOAD ACTIVE UNKNOWN

§ Identity

Operator
Country
JPN
Launch date
2018-04-05
Launch site
FRGUI
Launch vehicle
Mass (kg)
RCS (m²)

Purposes: comms

External: N2YO · Heavens-Above · Gunter

§ Orbital elements

Epoch: 2026-09-19T15:27:55.711584Z

Period
1,436.08 min
Inclination
0.0217°
Eccentricity
0.0001080
Mean motion
1.00272679 rev/d
Perigee alt
35,781.8 km
Apogee alt
35,790.9 km
Semi-major
42,164.5 km
B*
0.0000e+0
RAAN
99.2368°
Arg perigee
82.5567°
Mean anomaly
210.7714°
Rev number
3,100

§ Raw data

SUPERBIRD-B31 43271U 18033A   26262.64439481 -.00000096  00000+0  00000+0 0  99932 43271   0.0217  99.2368 0001080  82.5567 210.7714  1.00272679 31008

JSON: /api/v1/satellites/43271 · /tle

For live sub-satellite position, see the globe view (requires WebGL).

§ Visibility from observer

Set your observer location to see the next 7 days of passes ≥ 10°. The values pass through the URL so the page stays shareable.

No JS? Fill the form by hand. The geolocation button needs JavaScript.